Lexington Weather

Lexington, Massachusetts, USA

35°F
10/30/2020 6:17am 
  • Lexington Conditions: Light snow, Mist, Overcast
  • Temperature: 34.7°F / 1.5°CColder 1.1°F than last hour.
  • Dew Point: 34.0°FDecreased 1.1°Fsince last hour.
  • Relative Humidity: 97
  • Wind: Wind from NNE NNE 3 mph, 10-min avg: 2 mph, gust: 5 mph
  • Barometer: 29.74 inFalling 0.04  inHg/hr Falling Slowly
  • Visibility: 5 miles
  • Rain Today: 0.09 in
  •   
Southeast Middlesex County - Winter Weather Advisory
 - SEE ALL NEARBY ALERTS -

Regional Weather Roundup
for Boston / Norton, MA

        
000
ASUS41 KBOX 260204
RWRBOX

REGIONAL WEATHER ROUNDUP
NATIONAL WEATHER SERVICE BOSTON/NORTON MA
1000 PM EDT SUN OCT 25 2020

NOTE:  "FAIR" INDICATES FEW OR NO CLOUDS BELOW 12,000 FEET WITH NO 
SIGNIFICANT WEATHER AND/OR OBSTRUCTIONS TO VISIBILITY.

MAZALL-260300-
EASTERN MASSACHUSETTS
  
CITY           SKY/WX    TMP DP  RH WIND       PRES   REMARKS
BOSTON         CLOUDY    47  35  63 E9        30.36S                  
BEVERLY        CLEAR     45  35  68 NE6       30.35S                  
LAWRENCE       CLEAR     45  35  68 CALM      30.39R                  
BEDFORD        PTCLDY    44  36  73 NE5       30.34S                  
BLUE HILL        N/A     44  35  70 E12       30.31F                  
NORWOOD        MOCLDY    47  37  68 E3        30.34S                  
MARSHFIELD     LGT RAIN  50  39  66 E9        30.35S                  
PLYMOUTH       CLOUDY    47  37  68 E7        30.34S                  
TAUNTON        CLOUDY    47  39  74 CALM      30.34S                  
NEW BEDFORD    CLOUDY    48  38  68 NE8       30.33S                  
$$

MAZALL-260300-
CAPE COD AND THE ISLANDS
  
CITY           SKY/WX    TMP DP  RH WIND       PRES   REMARKS
FALMOUTH       CLOUDY    46  37  71 NE9       30.34R                  
HYANNIS        CLOUDY    47  38  71 NE5       30.34R                  
CHATHAM        CLOUDY    50  36  58 NE8       30.36R                  
NANTUCKET      CLOUDY   N/A N/A N/A NE10      30.33R                  
MARTHAS VNYRD  CLOUDY    50  39  66 NE15      30.32F                  
$$
 
MAZALL-260300-
CENTRAL AND WESTERN MASSACHUSETTS
  
CITY           SKY/WX    TMP DP  RH WIND       PRES   REMARKS
WORCESTER      MOCLDY    43  35  73 E6        30.32R                  
FITCHBURG      CLEAR     41  36  82 NW3       30.35S                  
ORANGE         CLEAR     38  34  85 CALM      30.34R                  
SPRINGFIELD    NOT AVBL                                               
WESTFIELD      PTCLDY    43  36  76 N5        30.32R                  
NORTH ADAMS    CLEAR     42  29  59 E5        30.29S                  
PITTSFIELD     CLEAR     40  30  67 CALM      30.27S                  
$$
 
RIZALL-260300-
RHODE ISLAND
  
CITY           SKY/WX    TMP DP  RH WIND       PRES   REMARKS
PROVIDENCE     CLOUDY    47  39  74 E8        30.34R                  
NEWPORT        CLOUDY    47  39  74 E8        30.33R                  
BLOCK ISLAND   CLOUDY    50  39  66 E13G21    30.32R                  
SMITHFIELD     CLOUDY    43  41  93 E5        30.34R                  
WESTERLY       CLOUDY    48  39  71 NE8       30.33R                  
$$
 
CTZALL-260300-
CONNECTICUT
  
CITY           SKY/WX    TMP DP  RH WIND       PRES   REMARKS
BRADLEY INTL   LGT RAIN  46  38  73 NE5       30.31R                  
HARTFORD       CLOUDY    50  38  63 E6        30.31R                  
BRIDGEPORT     CLOUDY    51  38  60 NE10      30.28R                  
DANBURY        CLOUDY    47  36  65 E10       30.28R                  
GROTON         CLOUDY    50  39  66 E10       30.31R                  
NEW HAVEN      CLOUDY    52  40  63 NE8       30.29R                  
CHESTER        CLOUDY    50  39  66 E6G13     30.30R                  
MERIDEN        CLOUDY    49  36  61 NE5       30.30R                  
WILLIMANTIC    CLOUDY    47  38  71 E6        30.33R                  
OXFORD         LGT RAIN  45  35  68 NE9       30.28S                  
$$

MEZ002-015-021-024-NHZ003-005-008-011-012-014-VTZ005-008-260300-
NORTHERN NEW ENGLAND
  
CITY           SKY/WX    TMP DP  RH WIND       PRES   REMARKS
PORTLAND ME    CLEAR     36  27  69 N3        30.39S                  
BANGOR ME      PTCLDY    34  26  72 CALM      30.41R                  
CONCORD NH     PTCLDY    36  30  79 CALM      30.37R                  
MANCHESTER NH  MOCLDY    41  33  73 N5        30.35R                  
NASHUA NH      CLEAR     38  37  97 NW3       30.37R                  
PORTSMOUTH NH  PTCLDY    39  33  79 CALM      30.35S                  
JAFFREY NH     CLEAR     33  29  85 CALM      30.33R                  
KEENE NH       MOCLDY    36  32  85 CALM      30.34R                  
BURLINGTON VT  MOCLDY    37  25  61 E3        30.34F                  
MT. WASHINGTON MOCLDY    23   9  54 W18         N/A  WCI   9          
$$

NYZ052-076-260300-
EASTERN NEW YORK
  
CITY           SKY/WX    TMP DP  RH WIND       PRES   REMARKS
ALBANY         MOCLDY    38  29  70 N6        30.31S                  
NEW YORK CITY  LGT RAIN  50  42  74 NE9       30.25F                  
$$
 
ANZALL-260300-
MARINE OBSERVATIONS
  
STATION/POSITION TIME  TEMP    WIND        PRES    VSBY  WAVE
                       AIR SEA DIR/SP/G                  HT/PER
                 (UTC) (F)     (DEG/KT/KT) (MB)    (MI)  (FT/S)
BOSTON BUOY      0150   49 57   70/ 12/ 14 1026.8S         5/11
BUZZARDS BAY     0100           60/ 19/ 21 1027.5F
NANTUCKET SOUND  0150      61   60/ 16/ 19   N/A           2/ 3
MASS BAY-STELLWA 0104   49 56   80/ 10/ 12 1027.4R  1 7/8  5/11
ISLE OF SHOALS   NOT AVBL
S OF BLOCK IS    0126      62                N/A           5/ 5
$$

......................KEY.........................
  SKY/WX - SKY CONDITION/PRESENT WEATHER
  TMP    - TEMPERATURE IN FAHRENHEIT
  DWPT   - DEWPOINT IN FAHRENHEIT
  RH     - RELATIVE HUMIDITY IN PERCENT
  WIND   - DIRECTION AND SPEED IN MPH
  PRES   - MEAN SEA LEVEL PRESSURE IN INCHES OF HG
  WCI    - WIND CHILL INDEX
  VSB    - VISIBILITY IN MILES
  HX     - HEAT INDEX
  TC     - TEMPERATURE IN CELSIUS
  VRB    - VARIABLE WIND DIRECTION
  N/A    - NOT AVAILABLE
  
      

Other recent Regional Weather Roundups

Fri Oct 30, 6:04am

Fri Oct 30, 5:04am

Fri Oct 30, 4:04am

Fri Oct 30, 3:04am

Fri Oct 30, 2:04am

Fri Oct 30, 1:04am

Fri Oct 30, 12:04am

Thu Oct 29, 11:04pm

Thu Oct 29, 10:04pm

Thu Oct 29, 9:04pm

Thu Oct 29, 8:04pm

Thu Oct 29, 7:04pm

Thu Oct 29, 6:04pm

Thu Oct 29, 5:05pm

Thu Oct 29, 4:05pm

Thu Oct 29, 3:05pm

Thu Oct 29, 2:04pm

Thu Oct 29, 1:04pm

Thu Oct 29, 12:04pm

Thu Oct 29, 11:04am

Thu Oct 29, 10:04am

Thu Oct 29, 9:04am

Thu Oct 29, 8:04am

Thu Oct 29, 7:04am

Thu Oct 29, 6:04am

Thu Oct 29, 5:04am

Thu Oct 29, 4:04am

Thu Oct 29, 3:04am

Thu Oct 29, 2:04am

Thu Oct 29, 1:05am

Thu Oct 29, 12:04am

Wed Oct 28, 11:05pm

Wed Oct 28, 10:04pm

Wed Oct 28, 9:04pm

Wed Oct 28, 8:04pm

Wed Oct 28, 7:05pm

Wed Oct 28, 6:04pm

Wed Oct 28, 5:05pm

Wed Oct 28, 4:04pm

Wed Oct 28, 3:04pm

Wed Oct 28, 2:04pm

Wed Oct 28, 1:05pm

Wed Oct 28, 12:05pm

Wed Oct 28, 11:05am

Wed Oct 28, 10:04am

Wed Oct 28, 9:04am

Wed Oct 28, 8:04am

Wed Oct 28, 7:04am

Wed Oct 28, 6:04am

Wed Oct 28, 5:05am

Wed Oct 28, 4:04am

Wed Oct 28, 3:04am

Wed Oct 28, 2:04am

Wed Oct 28, 1:05am

Wed Oct 28, 12:04am

Tue Oct 27, 11:04pm

Tue Oct 27, 10:04pm

Tue Oct 27, 9:05pm

Tue Oct 27, 8:04pm

Tue Oct 27, 7:04pm

Tue Oct 27, 6:04pm

Tue Oct 27, 5:04pm

Tue Oct 27, 4:05pm

Tue Oct 27, 3:04pm

Tue Oct 27, 2:04pm

Tue Oct 27, 1:04pm

Tue Oct 27, 12:04pm

Tue Oct 27, 11:04am

Tue Oct 27, 10:04am

Tue Oct 27, 9:04am

Tue Oct 27, 8:04am

Tue Oct 27, 7:04am

Tue Oct 27, 6:04am

Tue Oct 27, 5:04am

Tue Oct 27, 4:04am

Tue Oct 27, 3:04am

Tue Oct 27, 2:05am

Tue Oct 27, 1:04am

Tue Oct 27, 12:04am

Mon Oct 26, 11:05pm

Mon Oct 26, 10:04pm

Mon Oct 26, 9:04pm

Mon Oct 26, 8:04pm

Mon Oct 26, 7:04pm

Mon Oct 26, 6:04pm

Mon Oct 26, 5:04pm

Mon Oct 26, 4:05pm

Mon Oct 26, 2:04pm

Mon Oct 26, 1:04pm

Mon Oct 26, 12:04pm

Mon Oct 26, 11:05am

Mon Oct 26, 10:04am

Mon Oct 26, 9:04am

Mon Oct 26, 8:04am

Mon Oct 26, 7:04am

Mon Oct 26, 6:04am

Mon Oct 26, 5:04am

Mon Oct 26, 4:04am

Mon Oct 26, 3:04am

Mon Oct 26, 2:04am

Mon Oct 26, 1:04am

Mon Oct 26, 12:04am

Sun Oct 25, 11:05pm

Sun Oct 25, 9:04pm

Sun Oct 25, 8:04pm

Sun Oct 25, 7:04pm

Sun Oct 25, 6:04pm

Sun Oct 25, 5:04pm

Sun Oct 25, 4:05pm

Sun Oct 25, 3:04pm

Sun Oct 25, 2:04pm

Sun Oct 25, 1:04pm

Sun Oct 25, 12:04pm

Sun Oct 25, 11:04am

Sun Oct 25, 10:04am

Sun Oct 25, 9:04am

Sun Oct 25, 8:04am

Sun Oct 25, 7:04am

Sun Oct 25, 6:04am

Sun Oct 25, 5:04am

Sun Oct 25, 4:04am

Sun Oct 25, 3:04am

Sun Oct 25, 2:04am

Sun Oct 25, 1:05am

Sun Oct 25, 12:04am

Sat Oct 24, 11:04pm

Sat Oct 24, 10:04pm

Sat Oct 24, 9:04pm

Sat Oct 24, 8:04pm

Sat Oct 24, 7:04pm

Sat Oct 24, 6:04pm

Sat Oct 24, 5:05pm

Sat Oct 24, 4:04pm

Sat Oct 24, 3:04pm

Sat Oct 24, 2:04pm

Sat Oct 24, 1:05pm

Sat Oct 24, 12:04pm

Sat Oct 24, 11:05am

Sat Oct 24, 10:05am

Sat Oct 24, 9:04am

Sat Oct 24, 8:04am

Sat Oct 24, 7:04am

Sat Oct 24, 6:04am

Sat Oct 24, 5:04am

Sat Oct 24, 4:04am

Sat Oct 24, 3:04am

Sat Oct 24, 2:04am

Sat Oct 24, 1:05am

Sat Oct 24, 12:04am

Fri Oct 23, 11:04pm

Fri Oct 23, 10:04pm

Fri Oct 23, 9:04pm

Fri Oct 23, 8:05pm

Fri Oct 23, 7:04pm

Fri Oct 23, 6:04pm

Fri Oct 23, 5:05pm

Fri Oct 23, 4:04pm

Fri Oct 23, 3:04pm

Fri Oct 23, 2:05pm

Fri Oct 23, 1:04pm

Fri Oct 23, 12:04pm

Fri Oct 23, 11:04am

Fri Oct 23, 10:04am

Fri Oct 23, 9:04am

Fri Oct 23, 8:04am

Fri Oct 23, 7:04am

Meta data:

ID: 18ec32be-1105-426d-a9fa-d3cd8349bd88
Link: https://api.weather.gov/products/18ec32be-1105-426d-a9fa-d3cd8349bd88